GFSMA_500_spd_069.txt.gz
Wind_Speed
15 15 14 13 13 15 14 15 22 21 20 19 19 18 17 17 17 17 17 17 17 16 18 19 19 21 21 22 18 25 20 20 16 13 15 17 18 18 19 19 17 17 17
18 18 17 15 14 14 15 16 20 20 20 20 20 19 20 20 20 20 20 20 19 18 16 16 17 17 17 18 16 12 10 13 16 17 18 20 22 23 23 23 22 22 21
18 19 17 17 16 16 15 15 16 18 20 21 22 21 20 21 22 20 22 22 20 18 17 15 15 16 15 15 14 13 14 18 20 19 20 18 21 23 21 22 23 25 25
18 21 20 19 17 17 15 14 16 16 16 16 19 19 20 20 18 18 17 19 21 20 18 17 15 16 17 17 16 17 17 19 21 20 19 18 18 16 15 19 26 24 21
22 19 20 19 20 18 16 17 16 18 17 17 18 19 20 20 17 17 17 18 17 16 16 14 17 18 18 18 19 18 19 19 20 18 21 19 18 18 18 15 11 10 8
19 21 18 19 21 19 18 17 19 19 21 21 20 20 20 20 18 19 17 18 17 17 17 20 12 21 20 19 19 19 19 20 21 20 20 16 17 15 18 15 10 11 14
23 26 23 19 18 19 19 18 17 17 17 17 16 19 20 21 21 21 22 20 19 16 15 13 15 22 20 17 23 19 15 17 20 19 18 17 16 15 15 11 9 13 16
18 22 23 25 23 21 19 19 18 18 18 17 20 18 18 22 23 23 20 18 17 17 17 17 17 20 21 17 23 17 20 18 21 19 18 15 16 16 17 14 16 15 18
19 20 22 22 22 21 19 18 19 18 17 17 18 18 18 20 21 23 22 20 18 18 19 19 20 21 23 20 20 22 22 22 18 15 17 18 17 18 14 14 14 13 16
15 19 18 20 20 23 20 19 18 18 18 19 19 23 23 24 23 28 24 20 19 19 19 20 21 22 24 21 20 21 22 20 19 17 19 19 14 14 14 14 12 12 13
12 15 21 23 22 20 21 22 21 19 19 20 21 21 29 27 24 29 24 14 16 17 18 19 20 23 25 21 19 19 18 15 14 14 12 13 15 15 16 17 13 11 13
10 12 18 19 25 28 23 23 22 21 20 21 21 21 23 16 12 14 16 15 18 14 15 16 18 21 21 18 17 16 17 16 14 12 16 16 16 15 17 19 19 19 18
5 8 11 18 21 22 23 23 24 25 23 22 22 21 21 18 15 13 15 18 15 10 14 15 13 11 10 12 14 17 17 16 13 12 13 13 13 13 15 16 15 14 14
8 11 10 10 16 23 27 27 28 26 26 25 24 24 25 18 16 15 16 16 14 12 12 9 7 6 8 10 10 11 13 14 12 14 12 12 10 10 11 11 11 10 11
9 11 12 11 10 12 18 27 27 28 27 23 24 26 34 22 18 19 18 19 18 14 13 11 9 7 7 8 9 9 8 8 9 10 8 9 10 10 10 9 7 6 8
10 10 12 12 12 10 10 15 21 23 22 23 24 31 32 24 22 22 19 20 18 14 14 13 10 8 8 9 9 9 9 9 8 9 10 12 13 11 10 9 9 9 10
11 12 12 13 13 12 12 11 12 15 17 22 24 26 24 25 25 25 20 20 23 18 17 13 10 10 9 10 10 11 12 12 13 13 14 15 13 13 13 13 13 13 16
14 14 14 14 14 14 14 13 13 10 8 10 11 11 11 15 19 22 20 24 19 18 21 16 14 11 12 13 13 12 14 14 15 15 16 15 15 16 16 14 15 18 20
14 16 15 14 12 14 16 16 16 15 17 16 16 18 19 18 20 18 20 23 25 20 24 20 17 14 15 16 17 16 15 16 16 17 17 17 19 20 19 19 21 22 23
15 17 17 16 17 17 14 16 17 18 18 19 19 19 19 22 23 24 26 26 27 25 26 25 21 18 18 19 19 20 18 18 19 19 20 20 22 21 22 23 25 25 25
18 17 19 19 19 17 14 13 16 19 20 20 20 20 20 21 23 24 24 26 29 29 30 29 27 23 22 22 22 22 22 22 22 23 23 23 24 24 24 26 26 26 27
21 19 19 20 19 17 16 17 19 17 22 22 22 22 22 21 21 22 25 26 27 29 31 33 31 29 28 27 26 25 24 24 25 26 26 26 26 27 28 28 27 28 29
19 18 16 18 18 20 18 19 22 20 17 23 23 23 24 23 22 22 23 24 27 30 32 32 32 33 33 31 29 28 27 27 28 28 29 29 31 30 31 32 30 30 31
21 19 17 17 17 18 17 17 19 17 21 22 26 24 24 25 25 25 25 25 26 27 29 30 30 32 32 31 30 30 30 31 31 31 32 31 34 33 33 33 32 32 32
23 21 18 17 19 17 17 18 15 17 17 19 21 23 25 25 27 27 28 28 29 28 29 30 31 31 31 31 31 32 33 33 34 34 35 36 34 37 36 33 35 33 33
29 23 20 20 20 19 17 18 16 16 16 21 20 22 28 28 28 29 28 28 27 29 31 33 33 33 32 33 33 34 35 35 37 38 35 38 38 37 36 36 33 36 33

GFSMA_500_spd_072.txt.gz
Wind_Speed
12 13 14 14 16 18 16 14 18 19 19 19 18 18 17 17 16 15 16 16 16 17 16 17 18 19 18 20 20 17 17 26 28 21 20 18 20 20 20 20 20 19 19
15 15 14 15 16 17 17 17 17 20 20 20 20 20 20 20 19 20 19 20 18 19 19 19 18 18 18 17 15 13 11 9 10 18 18 20 21 21 22 25 28 24 23
18 17 18 17 17 15 16 16 15 19 22 22 21 22 22 21 22 22 22 22 22 23 23 19 20 18 17 17 15 13 11 12 15 18 20 20 18 16 19 20 18 22 26
19 20 20 20 19 17 17 17 16 17 20 22 23 23 24 24 23 23 24 24 22 21 21 23 22 23 19 16 16 16 15 13 16 19 20 19 18 16 17 14 14 20 23
21 22 21 22 21 22 20 20 19 20 19 20 21 20 21 20 22 22 22 23 22 20 21 20 21 22 24 21 15 14 17 17 17 19 18 16 17 16 15 13 12 9 9
20 21 23 22 21 23 21 19 19 19 19 21 20 19 20 21 22 22 21 23 21 22 21 18 18 24 24 20 15 14 16 18 18 18 17 17 16 15 16 12 11 9 9
21 22 24 22 23 22 25 20 19 18 21 22 20 21 21 21 22 22 21 23 19 26 26 17 14 18 21 26 13 16 16 20 17 18 17 16 15 14 14 14 12 9 11
17 23 27 25 23 23 23 23 21 19 20 17 18 20 21 22 24 24 24 27 24 27 20 18 15 20 24 16 18 17 19 16 19 19 18 17 14 13 12 15 16 12 14
14 16 21 24 25 26 26 22 23 21 22 21 20 21 22 21 20 18 22 24 26 22 21 20 22 22 21 19 18 20 21 19 19 20 17 15 16 14 13 13 13 12 11
12 14 15 16 22 22 23 22 22 21 22 21 20 21 22 22 21 21 18 15 23 22 24 23 23 22 23 21 19 19 19 21 19 19 20 19 19 13 13 14 13 12 13
14 10 13 15 14 20 20 24 21 25 23 21 23 21 21 23 24 25 29 25 29 27 23 22 21 20 20 21 22 21 19 19 18 14 15 12 11 12 14 15 14 11 8
12 10 10 14 17 22 26 25 28 25 26 24 21 21 22 24 21 23 17 25 28 21 20 20 18 16 17 19 20 19 18 17 17 17 15 13 13 16 13 13 14 15 15
2 3 6 7 15 20 23 30 27 24 25 21 23 24 21 22 22 18 14 17 19 19 21 21 17 16 14 13 13 14 15 17 16 12 11 11 11 11 9 9 11 9 10
6 6 7 7 9 12 20 26 27 29 30 28 29 28 26 23 20 21 22 20 18 16 16 14 14 11 10 11 9 10 11 11 13 10 11 11 10 6 6 7 7 5 5
4 5 6 7 8 9 10 16 21 26 33 32 27 28 28 24 22 29 20 19 19 14 17 15 14 12 11 9 7 8 8 7 7 7 7 8 7 7 7 7 5 3 3
9 9 9 8 7 8 8 10 13 16 21 25 23 26 30 21 19 21 19 22 21 20 22 20 16 15 12 10 9 7 6 7 7 7 8 8 9 10 9 8 6 6 6
12 11 12 12 12 9 8 9 10 10 13 15 20 24 28 27 24 26 24 25 23 24 26 19 16 13 12 11 11 9 9 10 9 9 11 12 11 11 10 10 10 10 11
12 13 14 14 15 14 13 12 12 13 13 11 13 17 20 25 20 20 23 24 26 27 18 22 16 14 13 13 12 12 12 13 13 13 13 13 13 13 13 13 13 15 16
13 14 16 15 15 16 16 15 16 15 15 16 16 15 14 15 16 15 16 16 20 23 15 26 20 17 16 15 14 14 15 16 15 15 15 15 15 16 17 17 18 19 21
21 18 16 15 16 18 17 15 13 15 16 17 18 17 19 19 20 22 19 18 18 21 22 15 19 21 20 19 18 17 17 18 19 18 18 17 17 19 20 21 22 23 24
27 26 25 21 18 17 15 14 16 14 13 17 20 20 21 20 21 23 23 23 22 23 24 25 25 24 26 24 24 21 23 23 22 21 21 20 20 21 23 24 26 26 27
25 26 26 25 22 19 15 12 12 14 19 17 18 21 23 22 22 22 22 22 22 23 24 27 29 29 29 30 29 30 28 27 26 25 24 24 24 25 25 28 29 30 30
23 25 27 28 27 25 21 18 15 15 15 13 16 18 23 25 23 23 24 24 23 23 25 26 27 29 31 32 33 34 33 31 29 29 28 27 29 27 30 31 31 32 32
21 22 26 28 31 30 27 25 22 18 18 16 19 19 19 26 24 25 24 25 25 24 26 27 28 29 31 32 33 33 33 32 30 31 30 30 31 30 29 36 34 34 35
21 19 24 29 28 31 32 30 27 22 17 19 21 22 15 24 25 24 23 27 27 28 27 27 26 28 30 31 30 32 31 31 32 32 32 32 34 33 30 32 37 35 35
24 20 25 27 31 31 34 34 30 26 22 19 23 20 18 15 22 26 26 26 28 27 28 29 29 29 28 28 28 30 31 32 34 33 35 34 35 37 35 34 35 35 35

GFSMA_500_spd_075.txt.gz
Wind_Speed
10 11 12 12 16 18 18 17 17 16 16 16 16 16 16 16 16 15 14 15 15 15 15 16 16 17 19 19 20 20 18 16 18 23 24 22 20 22 20 21 22 22 21
11 11 12 13 15 16 20 19 18 18 18 20 20 21 20 19 18 18 19 20 19 19 19 18 19 19 19 17 17 16 15 13 12 9 12 19 20 20 23 24 22 25 27
14 15 13 14 15 16 19 20 19 19 22 23 23 24 21 22 22 21 22 22 22 22 22 24 24 21 19 18 18 17 15 14 13 12 13 17 21 19 16 16 17 20 21
17 17 16 20 20 19 17 19 21 20 19 24 24 25 23 23 21 21 22 22 23 25 24 24 24 23 22 23 22 20 17 16 15 13 13 15 17 16 18 16 15 18 18
18 20 22 19 25 21 20 20 21 19 18 19 22 23 23 23 24 25 25 23 22 23 23 23 21 21 22 24 21 18 17 15 16 16 14 15 15 16 16 16 16 17 15
19 20 22 21 21 18 20 22 23 22 19 19 19 20 21 22 23 24 22 23 23 21 23 22 27 18 24 23 20 17 15 14 15 18 13 13 14 14 16 16 13 13 11
17 24 26 25 24 23 26 25 26 23 21 19 19 21 21 25 22 23 23 21 24 22 24 28 26 21 24 21 22 13 11 12 17 16 12 13 14 14 13 14 16 14 14
14 16 22 26 29 26 27 27 26 24 21 20 19 21 24 22 22 24 20 22 26 26 27 24 23 23 21 19 16 14 14 16 16 17 16 14 14 15 16 14 14 13 10
12 14 13 22 30 30 25 28 27 26 24 20 20 22 22 22 24 23 21 21 22 28 25 25 23 19 21 21 18 17 18 19 18 18 15 15 15 16 17 16 15 13 12
11 9 10 13 30 30 29 25 24 27 25 24 23 25 25 24 23 23 20 22 21 25 27 23 23 22 23 22 18 16 18 19 18 17 16 17 17 17 17 13 12 12 13
13 10 10 11 10 21 26 25 25 24 25 23 24 26 25 23 22 23 27 28 28 29 25 21 26 24 20 20 16 19 19 20 18 16 15 13 15 12 11 12 12 11 8
10 8 10 10 12 13 12 21 21 25 23 24 25 26 26 22 22 22 22 22 16 19 27 23 24 22 21 20 18 17 19 18 17 15 16 16 15 13 12 12 10 9 13
3 3 2 6 8 11 15 19 20 26 27 30 28 28 26 25 23 22 22 20 19 22 22 21 19 21 20 17 15 14 13 13 14 16 14 12 11 10 8 7 5 5 6
6 5 5 8 10 10 9 13 19 22 24 28 28 23 24 27 23 20 20 20 24 24 20 20 20 20 15 13 13 12 11 11 11 11 11 12 12 9 6 5 4 5 6
5 6 9 9 9 8 7 9 10 14 20 24 31 31 26 30 29 26 22 22 26 24 20 19 19 18 17 13 10 9 10 10 9 7 12 10 10 9 7 6 5 4 4
10 8 9 10 9 9 9 9 9 11 13 16 19 25 29 30 25 28 21 18 25 23 25 19 24 21 18 14 11 11 10 9 8 7 7 8 9 10 9 7 7 7 8
11 11 13 12 13 13 13 13 13 11 10 11 13 14 15 19 22 21 23 24 27 28 27 24 28 25 18 14 13 12 11 10 10 10 10 11 12 13 12 11 12 11 11
13 14 14 14 14 15 16 15 15 16 15 14 12 10 12 15 19 25 23 23 26 29 28 24 20 26 18 16 13 12 12 12 13 14 15 15 15 16 15 15 14 13 13
13 13 14 15 15 15 16 15 14 15 16 16 17 17 15 13 12 14 17 19 21 23 24 21 25 31 20 17 14 12 12 11 13 15 18 17 18 18 18 18 17 16 17
14 14 13 15 17 16 15 13 14 14 13 15 17 19 20 19 18 17 16 15 15 15 17 16 17 28 26 18 19 16 15 13 14 17 19 19 20 20 21 19 19 19 20
12 14 14 14 16 17 16 16 15 15 13 14 18 19 21 20 20 19 18 16 19 21 23 22 12 22 19 22 23 20 20 18 19 20 21 22 24 23 23 22 21 22 23
15 16 13 13 14 16 17 18 15 16 16 17 20 20 17 21 23 23 22 20 21 22 23 23 21 20 24 27 26 26 26 25 25 25 24 24 26 26 24 24 24 24 25
17 18 13 13 13 13 14 16 18 19 19 19 18 16 15 17 23 26 25 23 22 22 22 24 25 25 26 26 26 28 27 28 30 27 29 27 26 27 26 26 26 27 28
20 20 16 13 12 16 15 16 17 17 21 22 21 18 20 23 21 23 26 26 25 24 23 23 23 24 25 26 27 28 29 29 30 29 29 28 27 28 29 30 29 30 29
25 21 15 13 15 16 18 17 21 21 21 23 23 22 18 18 17 18 24 25 24 24 25 26 26 26 26 25 27 28 29 28 28 27 26 26 27 26 27 33 34 29 28
31 23 18 16 16 21 22 18 18 23 23 24 25 23 21 16 17 14 17 25 27 26 24 25 27 28 28 27 29 29 29 27 27 26 28 25 27 27 25 26 25 34 37

GFSMA_500_spd_078.txt.gz
Wind_Speed
9 10 11 13 15 17 18 17 17 17 17 16 15 14 15 15 15 13 13 14 14 13 14 15 16 16 17 18 19 19 18 19 19 18 17 22 25 21 19 23 20 19 19
12 13 13 14 15 16 19 19 19 19 19 19 19 18 18 19 18 17 17 18 16 18 20 19 20 20 19 19 16 15 16 16 15 16 17 14 13 19 21 19 19 22 20
17 16 15 14 16 17 18 22 20 20 22 22 23 22 22 21 19 19 19 20 20 21 23 24 24 24 25 23 19 17 18 18 18 17 17 16 16 16 18 18 16 15 20
19 19 17 18 16 18 20 22 22 22 19 22 23 24 24 23 22 20 22 22 21 23 24 27 26 25 24 22 22 21 22 22 20 20 19 17 18 18 17 15 17 17 19
18 17 19 21 20 20 20 21 24 24 22 22 21 25 25 24 23 23 24 23 24 24 26 27 24 24 23 21 23 24 18 20 17 17 18 19 17 19 18 17 17 17 19
22 20 21 23 24 25 25 25 24 23 24 21 19 21 24 26 25 26 25 24 23 24 26 26 25 23 22 24 18 19 17 11 15 17 16 18 16 16 18 17 16 16 15
16 17 23 24 28 29 28 27 25 25 23 21 20 21 22 22 23 21 22 24 24 23 25 26 27 27 26 23 17 17 11 10 15 14 17 14 14 15 18 17 14 15 17
16 16 20 13 29 27 27 29 28 24 23 21 22 24 25 25 25 25 24 23 22 23 24 27 29 31 23 18 15 17 14 14 15 17 18 17 15 17 18 18 18 16 14
14 15 15 21 22 31 30 30 29 30 28 26 25 27 27 26 25 25 25 24 25 24 23 26 31 28 18 19 20 18 18 16 16 18 21 17 16 17 17 19 18 18 15
14 13 13 12 11 20 30 29 30 31 27 30 27 27 27 27 27 27 28 26 23 23 24 24 27 21 21 21 22 21 20 19 18 19 19 19 18 18 19 18 15 15 14
10 13 13 12 14 13 31 33 28 26 25 25 29 31 28 29 29 28 25 27 25 22 26 28 23 22 24 25 22 20 22 22 21 20 19 18 16 14 15 12 12 13 14
8 11 11 12 9 9 5 24 29 25 26 31 28 29 27 27 29 30 26 23 25 23 19 18 26 28 27 27 22 21 21 21 22 20 18 16 18 18 15 14 16 14 15
7 2 4 7 8 8 10 14 17 24 28 27 29 29 24 29 29 27 25 22 25 28 24 21 20 17 22 22 18 18 18 17 15 15 16 18 16 13 12 13 12 13 15
5 2 4 8 10 11 12 11 15 21 23 27 30 33 30 31 28 26 26 25 24 23 21 23 24 21 21 22 19 15 16 15 15 15 13 12 14 14 12 12 10 13 11
4 3 4 4 5 8 10 11 12 14 17 21 26 25 27 29 21 25 31 26 27 24 23 24 22 20 22 20 18 16 14 14 15 14 13 15 14 13 11 10 11 11 10
8 4 4 4 5 5 7 11 12 14 13 16 22 25 26 29 33 26 25 27 24 23 23 24 22 23 23 22 21 17 16 16 14 12 10 11 12 12 12 11 12 12 12
8 7 7 7 6 5 6 8 11 13 14 16 16 18 21 22 22 26 27 25 29 25 25 28 25 27 25 27 22 20 17 14 14 12 12 12 13 13 14 14 15 15 15
8 9 9 7 6 6 7 8 9 11 13 14 17 16 15 17 23 21 22 25 23 26 30 28 32 31 33 34 28 22 16 15 14 14 14 15 16 16 16 17 17 16 17
7 9 12 13 11 10 10 9 8 10 11 12 14 16 16 18 15 17 22 21 22 26 30 30 29 33 30 26 24 24 16 14 13 14 15 17 18 17 17 18 18 18 20
10 10 11 11 12 11 11 12 11 11 12 13 12 12 17 19 19 19 18 19 21 21 23 21 24 18 19 31 28 22 16 17 14 13 14 16 17 18 19 20 21 22 22
19 17 16 16 12 9 11 11 10 10 12 13 14 14 18 18 21 22 21 23 23 24 23 24 19 14 20 31 26 21 21 19 21 19 17 18 18 19 20 22 23 24 24
24 22 19 20 19 13 10 7 8 10 10 11 13 15 16 16 18 18 19 22 24 24 25 25 26 22 19 29 38 28 27 27 27 26 25 26 24 23 23 25 25 25 26
30 28 26 22 22 21 16 12 7 5 6 10 11 12 14 14 13 15 17 22 25 24 24 25 24 23 21 22 25 25 30 32 30 29 31 30 29 27 25 27 27 27 28
36 36 33 28 26 27 24 19 14 11 6 6 8 11 13 14 15 18 17 18 24 25 25 23 24 25 23 25 29 32 32 32 32 34 32 31 30 30 27 28 29 29 31
38 41 39 33 31 26 26 24 20 18 9 9 9 10 11 14 16 17 18 20 18 25 25 26 26 26 27 26 26 26 27 28 31 32 31 30 28 27 28 30 32 30 31
46 43 38 36 32 26 26 25 24 22 17 11 12 13 10 12 10 15 16 13 17 20 27 25 25 26 26 27 29 30 30 30 30 30 30 30 29 29 30 34 32 31 31

GFSMA_500_spd_084.txt.gz
Wind_Speed
13 14 13 14 14 13 16 15 16 17 16 16 15 13 11 11 12 11 11 10 8 8 9 8 9 12 14 16 16 16 17 16 15 16 15 15 13 13 11 8 13 14 16
14 14 15 14 14 13 14 18 17 18 17 18 17 16 15 14 14 13 13 12 11 11 12 12 14 15 16 18 18 19 19 18 18 19 19 18 15 15 12 9 10 12 14
15 14 14 15 14 15 16 17 19 20 19 19 19 19 19 18 17 16 16 15 14 15 14 16 16 18 19 20 21 19 19 19 21 21 21 20 19 16 15 15 14 14 13
17 17 17 16 15 16 16 17 20 21 21 20 18 19 20 19 19 19 18 18 17 16 18 18 19 20 21 21 21 21 20 22 22 20 18 19 18 16 17 16 16 15 14
18 21 22 20 19 18 17 18 18 20 22 22 20 20 21 21 21 21 21 22 21 19 20 20 20 22 22 22 21 20 21 23 21 21 20 18 17 16 17 17 16 15 14
13 20 22 22 22 22 21 19 19 21 22 24 22 23 21 19 20 24 25 24 22 21 21 23 22 21 23 23 22 21 24 23 23 22 18 14 15 16 16 15 15 15 16
15 19 20 24 22 24 24 25 23 22 23 22 23 24 24 23 23 22 24 24 23 23 22 22 21 23 23 21 22 24 24 23 17 13 13 16 17 17 16 14 15 16 16
11 17 18 15 20 25 27 27 27 27 27 24 23 25 24 22 22 22 19 20 21 22 22 23 23 21 23 22 21 25 24 18 18 17 17 17 19 19 21 18 19 19 16
11 14 17 18 20 19 23 20 33 32 29 27 28 26 24 23 24 23 22 22 24 25 27 25 23 23 26 24 25 25 24 19 17 19 19 20 19 20 20 18 19 19 19
11 13 16 19 18 19 16 24 15 28 31 30 28 27 26 24 23 23 23 25 27 27 23 24 24 25 24 24 28 27 20 21 20 21 21 20 20 21 20 20 21 21 21
13 13 15 17 18 17 17 10 14 22 33 33 32 29 28 27 26 27 27 25 24 25 26 26 29 26 26 25 27 30 24 20 23 21 21 21 21 21 22 22 21 19 18
10 7 10 11 15 16 13 12 12 15 32 33 34 32 31 30 29 28 27 30 29 27 27 28 30 28 27 26 26 22 29 31 25 24 23 22 22 21 22 21 21 21 21
10 7 7 10 9 10 11 14 13 18 22 27 29 30 26 27 30 31 29 31 28 27 26 25 23 24 25 26 24 20 20 20 18 20 22 22 21 21 20 21 22 24 20
8 8 7 8 8 9 10 12 17 17 17 21 24 28 32 34 29 28 32 26 26 24 23 32 26 23 21 22 22 20 21 19 20 23 22 21 19 19 19 21 20 18 18
7 6 6 7 8 10 13 14 13 13 14 16 22 25 26 26 28 25 27 32 31 26 24 25 28 28 27 25 24 22 20 19 20 19 21 24 21 20 20 19 19 20 19
6 6 7 8 8 7 8 9 10 14 16 16 17 18 22 24 24 26 31 26 26 31 30 29 35 34 24 26 25 22 20 20 21 21 20 20 21 20 21 21 20 21 20
8 7 6 7 6 7 8 9 10 10 13 15 17 17 18 18 21 25 25 25 26 28 27 29 26 28 29 27 26 24 24 23 24 23 21 20 20 18 18 19 20 20 19
10 10 11 11 11 10 11 10 11 13 13 14 14 17 19 20 21 20 20 25 22 21 25 27 31 31 22 24 18 22 29 29 29 28 23 20 21 19 17 18 20 21 21
13 15 13 13 16 17 17 16 15 15 16 17 17 16 16 19 19 20 20 19 25 27 28 26 21 20 24 20 17 21 29 28 30 30 22 19 23 20 21 20 22 23 23
19 18 19 18 18 18 18 20 22 20 20 20 21 20 16 16 18 20 22 23 23 22 25 29 27 25 24 23 25 25 32 29 28 36 31 24 20 23 22 22 23 22 23
24 22 24 25 24 25 26 22 21 22 22 20 19 21 21 19 18 20 20 22 24 25 26 26 25 23 22 23 26 28 31 33 26 32 20 18 21 19 20 20 21 20 21
25 23 24 30 27 30 28 25 24 24 24 24 22 20 21 22 21 22 22 22 24 24 26 27 28 25 24 24 25 19 17 12 22 18 25 22 24 24 26 25 26 25 26
23 22 25 20 29 34 34 19 21 29 28 27 24 25 19 21 23 23 24 23 22 22 23 26 28 28 26 23 21 19 11 16 22 26 24 28 29 31 28 28 31 32 32
26 26 27 29 31 27 24 24 25 31 32 28 26 26 24 21 22 24 25 22 20 22 24 25 26 28 28 25 22 20 18 19 23 25 29 33 35 35 33 35 35 34 34
31 32 29 30 28 28 25 29 36 36 37 30 26 24 25 26 25 22 24 22 24 25 24 24 24 24 27 28 25 22 22 23 24 27 28 32 34 36 35 36 35 36 35
32 32 30 29 31 27 31 23 36 43 36 30 26 22 22 22 27 26 22 22 24 23 23 22 22 21 21 25 25 24 24 24 25 26 28 29 32 32 32 34 36 36 36

GFSMA_500_spd_087.txt.gz
Wind_Speed
12 14 14 15 16 17 18 16 16 16 16 15 14 12 11 11 11 12 11 10 10 9 8 9 9 10 10 12 12 13 14 15 14 13 15 13 12 11 11 11 8 10 11
14 14 14 14 15 15 18 19 18 18 18 19 18 16 15 15 14 13 12 11 11 11 11 12 13 14 14 15 16 16 16 14 14 15 19 17 16 15 12 10 10 10 10
15 15 16 16 16 16 18 21 22 20 19 19 19 19 17 16 15 15 15 14 14 14 15 16 16 16 17 17 18 18 18 15 20 19 18 17 14 16 13 13 13 12 13
17 17 18 18 18 17 17 19 20 22 22 21 20 20 19 18 17 18 18 16 17 17 17 18 19 19 19 20 21 20 19 19 21 19 15 18 18 14 13 15 16 16 14
20 21 20 20 19 19 19 18 19 20 23 23 22 21 20 20 20 19 19 19 20 20 20 21 20 21 21 22 21 21 20 20 22 17 22 19 20 16 13 18 16 16 15
18 19 21 22 23 23 22 21 20 19 21 23 23 22 20 20 19 20 21 21 22 22 23 22 22 22 22 20 21 21 20 22 22 18 16 15 13 11 14 16 18 13 15
14 18 17 18 22 26 26 25 22 21 21 22 23 25 24 22 21 22 21 20 22 25 25 24 24 22 21 21 20 21 22 22 22 20 16 14 14 15 15 16 18 13 13
11 16 21 18 20 28 28 27 26 27 26 25 24 24 23 23 24 24 22 20 20 20 22 22 23 22 23 22 22 23 23 21 23 16 17 17 17 18 18 19 17 14 18
11 14 18 20 20 19 29 29 29 30 30 29 27 25 23 23 25 24 23 20 20 21 22 24 23 26 25 25 25 25 23 24 23 19 18 17 18 19 20 20 18 16 17
9 13 14 17 19 20 20 24 20 29 33 35 31 28 29 29 28 25 24 23 22 23 25 26 24 23 25 28 28 23 21 23 22 20 23 20 20 20 21 21 20 19 18
6 11 13 15 18 18 20 17 15 18 21 22 33 31 30 31 28 26 25 24 24 25 23 23 25 25 26 30 26 26 23 22 21 18 21 23 22 21 19 21 21 21 19
5 7 7 10 14 14 15 19 18 20 21 21 25 32 29 25 26 28 28 31 30 30 29 27 26 27 26 29 27 26 26 22 18 23 26 25 25 21 20 22 22 21 19
4 5 8 9 8 13 13 17 23 30 21 22 34 32 33 34 33 32 29 31 29 29 30 29 28 27 25 23 22 23 24 23 19 19 20 19 19 20 20 21 21 21 19
5 4 6 9 10 8 12 13 14 16 22 22 19 22 26 31 32 31 30 30 31 31 28 26 31 31 25 24 22 24 25 24 21 19 18 21 20 19 19 18 19 21 22
4 2 3 5 7 9 10 9 13 15 19 14 12 8 16 23 26 30 34 34 30 30 36 24 27 30 21 24 24 26 28 25 24 20 19 18 18 20 19 21 22 22 20
6 3 3 4 7 9 8 8 10 12 15 13 11 13 17 16 19 24 27 29 33 32 29 32 34 30 26 29 36 29 25 24 22 21 19 20 20 18 19 21 21 19 21
9 8 7 8 8 9 9 9 10 11 11 11 12 14 16 19 19 19 23 25 30 34 35 36 37 28 28 26 27 26 28 28 26 23 21 24 23 22 20 19 17 17 20
10 9 8 10 14 15 16 17 16 14 15 14 15 15 15 17 18 21 22 23 24 29 32 36 31 34 31 26 30 29 29 25 26 28 28 26 28 22 20 19 17 18 19
13 10 8 8 10 12 10 13 16 17 16 14 15 15 16 17 17 19 20 23 24 23 25 29 27 26 26 24 24 25 23 28 29 27 21 24 31 25 22 19 20 19 22
14 16 18 18 15 17 17 15 15 14 16 21 18 16 16 18 19 19 19 18 20 22 24 26 28 28 28 28 30 24 22 25 26 26 32 33 27 27 23 25 22 24 25
18 16 22 25 22 21 26 24 21 20 19 20 21 20 20 18 20 23 21 20 21 22 25 27 29 29 27 26 26 27 26 29 31 33 31 22 31 35 24 23 21 26 24
20 16 25 18 23 22 21 26 25 27 25 22 20 23 24 21 21 23 23 23 23 24 23 27 26 28 28 28 28 26 26 26 24 21 24 20 19 23 24 24 27 23 22
19 20 20 22 26 26 26 27 27 32 31 23 19 20 24 26 23 22 22 23 26 23 24 21 22 22 24 27 27 27 27 20 17 17 18 18 23 26 27 27 25 23 25
21 19 22 23 25 28 27 25 31 25 26 24 25 23 25 27 27 23 22 21 23 24 25 24 23 23 23 24 25 27 24 22 23 24 22 22 23 27 31 30 34 34 33
23 20 24 27 27 25 23 23 25 26 26 35 34 38 30 28 27 27 25 19 21 24 27 28 28 25 25 25 25 27 26 23 24 25 24 25 26 28 31 30 34 38 39
23 22 25 27 27 28 29 28 26 26 27 30 32 36 38 32 28 28 27 24 25 23 25 28 29 25 24 25 24 25 26 26 28 28 28 27 29 30 31 33 33 34 34